Погода в Тихвине

Погода в Тихвине : погода сейчас, прогноз погоды и архив. Всё, что Вы хотите узнать о погоде в Тихвине!

Хотите узнать прогноз погоды в Тихвине? Тогда Вам сюда: Погода в Тихвине

Поиск расширенной информации на нашем сайте:

Другие новости

Новости СМИ2

Главная страница сайта

Новости сайта

03.07.2017

Напоминаем, что на нашем специализированном сайте Метеоцентр.Азия вы можете получить высокодетализированные автоматические прогнозы погоды по пунктам России, СНГ и мира в авиационном формате (включающие направление и скорость ветра, видимость, явления погоды, количество и форму облачности, нижнюю и верхнюю границу облачности).


Погода в Тихвине - сегодня

Время (UTC), дата Ветер
(°,м/с) 
Видим.   Явления Облачность Т
(°С)
Тd
(°С)
f(%) Тe
(°С)
Pmin
(гПа)
dP
(гПа)
Po
(мм)
O2
(г/м3)
Тmin Tmax R s Состояние
почвы
09 13.01.18 230 (ЮЗ) 7000 м  снежные зёрна  10/10 420 м 
[St]
-7.4 -8.3 93 -10  1043.1  -0.3  776  322           
12 13.01.18 250 (З) 5000 м  снежные зёрна  10/10 480 м 
[St]
-7.1 -8.1 93 -10  1042.8  -0.3  776  322           
15 13.01.18 250 (З) 20000 м  {снег}  10/10 400 м 
[St]
-6.8 -7.9 92 -8  1042.5  -0.3  776  321      0.2     
18 13.01.18 240 (ЮЗ) 20000 м  {снег}  10/10 360 м 
[St]
-6.8 -7.6 94 -8  1042.5  0.1  776  321    -6.6  0.2     
21 13.01.18 240 (ЮЗ) 20000 м    10/10 400 м 
[St]
-7 -7.6 95 -8  1042.6  776  322           
00 14.01.18 240 (ЮЗ) 10 км    10/10 400 м 
[St]
-6.9 -7.5 95 -8  1042.3  -0.3  776  321           
03 14.01.18 230 (ЮЗ) 10 км    10/10 300 м 
[St]
-6.6 -7.2 95 -8  1042.6  0.3  776  321  -7.1         
06 14.01.18 260 (З) 4000 м  слаб. переохл. морось (гололёд) [диам. гололёда 2 мм]  10/10 240 м 
[St]
-6.2 -6.8 96 -6  1042.1  -0.5  775  320  -7.1    0.4  16  равномерный
мокрый или
старый снег
100% 
09 14.01.18 250 (З) 0800 м  слаб. переохл. морось (гололёд){туман} [диам. сложн. отлож. 2 мм]  10/10 240 м 
[St]
-5.3 -5.9 96 -5  1042.6  0.5  776  319           
12 14.01.18 220 (ЮЗ) 7000 м  слаб. переохл. морось (гололёд){туман} [диам. сложн. отлож. 3 мм]  10/10 240 м 
[St]
-5.3 -5.8 96 -5  1042.5  -0.1  776  319           
15 14.01.18 230 (ЮЗ) 4000 м  слаб. переохл. морось (гололёд) [диам. сложн. отлож. 3 мм]  10/10 210 м 
[St]
-5.2 -5.7 96 -5  1042  -0.4  775  319      0.9     
18 14.01.18 тихо ()   10 км  {морось} [диам. сложн. отлож. 3 мм]  10/10 240 м 
[St]
-5.4 -5.9 96 -5  1041.7  -0.3  775  319    -5  0.6     
21 14.01.18 190 (Ю) 4000 м  снежные зёрна [диам. сложн. отлож. 3 мм]  10/10 420 м 
[St]
-5.6 -6.2 96 -5  1041.5  -0.2  775  320           
00 15.01.18 180 (Ю) 20000 м  {снег} [диам. сложн. отлож. 3 мм]  10/10 450 м 
[St]
-5.7 -6.3 96 -5  1040.7  -0.8  774  319           
03 15.01.18 160 (Ю) 20000 м  [диам. сложн. отлож. 3 мм]  10/10 420 м 
[St]
-5.9 -6.6 95 -6  1039.5  -1.1  773  319  -5.9    0.1     
06 15.01.18 140 (ЮВ) 20000 м  [диам. сложн. отлож. 3 мм]  10/10 300 м 
[St]
-5.8 -6.5 95 -5  1038.5  -1  773  319  -5.9      14  равномерный
сухой снег
100% 
09 15.01.18 160 (Ю) 25000 м  [диам. сложн. отлож. 3 мм]  10/10 360 м 
[St]
-5.4 -6.2 94 -5  1037.6  -0.8  772  318           
12 15.01.18 150 (ЮВ) 25000 м  [диам. сложн. отлож. 3 мм]  10/10 400 м 
[St]
-5.1 -6 93 -5  1035.5  -2.1  770  317           
15 15.01.18 120 (ЮВ) 20000 м  [диам. сложн. отлож. 3 мм]  10/10 400 м 
[St]
-5.1 -5.9 94 -5  1033.7  -1.8  769  316           
18 15.01.18 120 (ЮВ) 20000 м  [диам. сложн. отлож. 3 мм]  9/9 1020 м 
[Sc]
-5.7 -6.6 93 -7  1031.4  -2.3  767  317    -5       
21 15.01.18 150 (ЮВ) 20000 м  [диам. сложн. отлож. 3 мм]  10/10 500 м 
[Sc]
-5.1 -5.9 94 -6  1030  -1.4  766  315           
00 16.01.18 150 (ЮВ) н/о    н/о 
-4.7 -5.7 93 -4  1028.4  -1.5  765  314           
03 16.01.18 170 (Ю) 20000 м  [диам. сложн. отлож. 3 мм]  10/10 700 м 
[Sc]
-4.5 -5.7 91 -6  1026.5  -1.9  764  314  -5.7         
06 16.01.18 180 (Ю) 20000 м  [диам. сложн. отлож. 3 мм]  10/10 720 м 
[Sc]
-5.6 -7.4 87 -8  1025.8  -0.8  763  315  -5.7      14  равномерный
мокрый или
старый снег
100% 
09 16.01.18 180 (Ю) 30000 м    9/9 700 м 
[Sc]
-6.2 -8.5 84 -9  1025.6  -0.2  763  316           
Время (UTC), дата Ветер
(°,м/с) 
Видим.   Явления Облачность Т
(°С)
Тd
(°С)
f(%) Тe
(°С)
Pmin
(гПа)
dP
(гПа)
Po
(мм)
O2
(г/м3)
Тmin Tmax R s Состояние
почвы

Для получения пояснительной информации подведите курсор к названию столбца.

ПОГОДА в Тихвине - архив

Всё, что Вы хотите узнать о погоде в Тихвине - удобно и подробно!

Выберите нужную дату (начиная с 1 января 2015* года) и нажмите кнопку "Найти".
Будут отображены архивные сводки погоды по пункту Тихвин, начиная с указанной даты.


Отображать данные в формате CSV (для использования в таблицах Excel)


Внимание! Наш архив погоды предназначен исключительно для личного некоммерческого использования в познавательных целях. Если Вам необходимы официальные справки о состоянии погоды (для производственных, юридических, коммерческих и т.п. целей), обращайтесь в органы Росгидромета.

*Примечание: данная дата относится к архиву по метеостанциям СССР (Россия, СНГ, Балтия).
Архив по метеостанциям Зарубежной Европы и Азии (кроме Китая) хранится 10 дней, по другим регионам земного шара (Китай, Африка, Америка, Австралия, Океания) - 1 день.

Тихвин - район местоположения метеостанции


Название, широта, долгота, высота метеостанции:
Тихвин 59.6°ш. 33.6°д. 61 м над ур. моря [Российская Федерация]

Дополнительная информация

В oтличие oт бoльшинства пoгoдных сайтoв мы публикуем пoдрoбную метеoинфoрмацию в детальнoм прoфессиoнальнoм фoрмате.

Характеристики температуры и влажнoсти вoздуха измеряются на высoте 2 м в тени вдали oт зданий и деревьев.
Скoрoсть ветра измеряется на высoте 10 м (на урoвне рoста челoвека скoрoсть ветра ниже в 1.5-2 раза). Если метеoстанция нахoдится в гoрoде или в лесу, тo скoрoсть ветра занижена на 2-4 м/с пo сравнению с oткрытым местoм. Скoрoсть ветра над акватoриями крупных рек и oзёр, а также на вершинах хoлмoв на 2-5 м/с выше, чем в oбычных услoвиях.
Атмoсфернoе давление в разных тoчках местнoсти мoжет значительнo oтличаться oт давления на метеoстанции, в зависимoсти oт услoвий рельефа (при пoдъёме на 10 м давление пoнижается примернo на 1 мм рт.ст.).